User: anonymous   Login
Location: Gradaro
(45.0833°N, 10.8833°E)
Time: 07:27:14
(UTC+00:00)
Language:

FENGYUN 1C DEB - Orbit

View from above orbital plane
View from above orbital plane
View from above satellite
View from above satellite

Ground track
Ground track

The orbit data is extracted from the following two-line orbital elements,

1 36255U 99025DWG 21166.08284340  .00000366  00000-0  16279-3 0  9994
2 36255  99.4360 279.0198 0073824 189.9645 345.5829 14.28176207405256
Epoch (UTC): 15 June 2021 01:59:17
Eccentricity: 0.0073824
inclination: 99.4360°
perigee height: 745 km
apogee height: 851 km
right ascension of ascending node: 279.0198°
argument of perigee: 189.9645°
revolutions per day: 14.28176207
mean anomaly at epoch: 345.5829°
orbit number at epoch: 40525

The dashed part of the orbit path shows where the satellite is in the earth's shadow,  

DLR